Millville, NJ

12:48 AM EDT on July 27, 2017 (GMT -0400)
Millville Municipal

Weather History for KMIV - January, 2012

Change the Weather History Date:

Tuesday, January 31, 2012

  Actual Average Record
Temperature  
Mean Temperature 50 °F -  
Max Temperature 62 °F 41 °F 62 °F (1988)
Min Temperature 37 °F 24 °F -1 °F (1961)
Degree Days  
Heating Degree Days 16    
Moisture  
Dew Point 30 °F    
Average Humidity 52    
Maximum Humidity 73    
Minimum Humidity 30    
Precipitation  
Precipitation 0.00 in - - ()
Sea Level Pressure  
Sea Level Pressure 30.15 in    
Wind  
Wind Speed 5 mph (SW)    
Max Wind Speed 10 mph    
Max Gust Speed 17 mph    
Visibility 10 miles    
Events      
Averages and records for this station are not official NWS values.
T = Trace of Precipitation, MM = Missing Value Source: NWS Daily Summary

Daily Weather History Graph

Daily Weather History Graph

Search for Another Location

Airport or City:

Trip Planner

Search our weather history database for the weather conditions in past years. The results will help you decide how hot, cold, wet, or windy it might be!

Date:

Astronomy

Jan. 31, 2012 Rise Set
Actual Time 7:08 AM EST 5:18 PM EST
Civil Twilight 6:40 AM EST 5:47 PM EST
Nautical Twilight 6:08 AM EST 6:19 PM EST
Astronomical Twilight 5:36 AM EST 6:51 PM EST
Moon 11:08 AM EST (1/31) 12:54 AM EST (1/31)
Length of Visible Light 11h 07m
Length of Day
10h 10m
First Quarter, 55% of the Moon is Illuminated
Jan 31
First Quarter
Feb 7
Full
Feb 14
Last Quarter
Feb 21
New
Feb 29
First Quarter

Hourly Weather History & Observations

Time (EST) Temp. Windchill Dew Point Humidity Pressure Visibility Wind Dir Wind Speed Gust Speed Precip Events Conditions
12:54 AM 39.0 °F 35.7 °F 28.0 °F 65% 30.23 in 10.0 mi Variable 4.6 mph - N/A   Partly Cloudy
1:54 AM 41.0 °F 37.1 °F 28.9 °F 62% 30.23 in 10.0 mi Variable 5.8 mph - N/A   Clear
2:54 AM 41.0 °F 38.0 °F 28.4 °F 61% 30.21 in 10.0 mi Variable 4.6 mph - N/A   Clear
3:54 AM 39.9 °F 36.7 °F 28.9 °F 65% 30.20 in 10.0 mi SSW 4.6 mph - N/A   Scattered Clouds
4:54 AM 39.9 °F 37.8 °F 30.0 °F 68% 30.20 in 10.0 mi Variable 3.5 mph - N/A   Partly Cloudy
5:54 AM 39.9 °F - 30.0 °F 68% 30.21 in 10.0 mi Calm Calm - N/A   Clear
6:54 AM 37.9 °F - 30.0 °F 73% 30.20 in 10.0 mi Calm Calm - N/A   Clear
7:54 AM 39.9 °F 37.8 °F 30.9 °F 70% 30.21 in 10.0 mi SSW 3.5 mph - N/A   Clear
8:54 AM 45.0 °F 40.1 °F 30.0 °F 56% 30.22 in 10.0 mi SW 9.2 mph - N/A   Clear
9:54 AM 48.2 °F - 28.4 °F 46% 30.22 in 10.0 mi SW 10.4 mph 17.3 mph N/A   Clear
10:54 AM 52.0 °F - 28.9 °F 41% 30.20 in 10.0 mi WSW 9.2 mph - N/A   Clear
11:54 AM 54.0 °F - 28.9 °F 38% 30.17 in 10.0 mi SW 8.1 mph - N/A   Clear
12:54 PM 57.9 °F - 30.0 °F 35% 30.13 in 10.0 mi SW 6.9 mph - N/A   Clear
1:54 PM 61.0 °F - 30.0 °F 31% 30.11 in 10.0 mi SW 5.8 mph - N/A   Clear
2:54 PM 62.1 °F - 30.0 °F 30% 30.09 in 10.0 mi Variable 4.6 mph - N/A   Clear
3:54 PM 61.0 °F - 30.9 °F 32% 30.08 in 10.0 mi Variable 5.8 mph - N/A   Clear
4:54 PM 57.9 °F - 33.1 °F 39% 30.09 in 10.0 mi Variable 6.9 mph - N/A   Clear
5:54 PM 54.0 °F - 33.1 °F 45% 30.09 in 10.0 mi Variable 3.5 mph - N/A   Clear
6:54 PM 50.0 °F - 32.0 °F 50% 30.12 in 10.0 mi Calm Calm - N/A   Clear
7:54 PM 44.1 °F - 33.1 °F 65% 30.12 in 10.0 mi Calm Calm - N/A   Clear
8:54 PM 46.9 °F - 33.1 °F 59% 30.10 in 10.0 mi Calm Calm - N/A   Clear
9:54 PM 50.0 °F - 33.1 °F 52% 30.09 in 10.0 mi Variable 3.5 mph - N/A   Scattered Clouds
10:54 PM 52.0 °F - 32.0 °F 47% 30.09 in 10.0 mi SW 5.8 mph - N/A   Mostly Cloudy
11:54 PM 54.0 °F - 30.9 °F 41% 30.07 in 10.0 mi Variable 5.8 mph - N/A   Mostly Cloudy